www.pogodaiklimat.ru

Погода и климат >> Архив погоды >> Франция >> Сен-Назер


ПОГОДА в Сен-Назере

  • Прогноз погоды в Сен-Назере
  • Монитор погоды в Сен-Назере

АРХИВ ПОГОДЫ в Сен-Назере

Время (UTC), дата Ветер
(напр.,м/с)
 
Видим.   Явления Облачность Т
(С)
Тd
(С)
f
(%)
Тe
(С)
Тes
(С)
Комфортность P
(гПа)
Po
(гПа)
Тmin
(С)
Tmax
(С)
R
(мм)
R24
(мм)
S
(см)
22 8.06 З 1-1
{2}
40 км 10/10
[]
+12.5 +9.7 83 +13 +13 1023.4 1023.0
23 8.06 В 1-1
{1}
19 км 10/10
[]
+10.4 +8.7 89 +11 +11 1023.1 1022.7
00 9.06 З 1-1
{1}
35 км 10/0
[]
+11.3 +9.7 90 +12 +12 1023.3 1022.9 0
01 9.06 С 1-1
{1}
35 км 10/10
[]
+11.2 +9.9 92 +12 +12 1022.5 1022.1
02 9.06 СВ 1-1
{1}
19 км 10/10
[]
+10.9 +9.3 90 +11 +11 1022.2 1021.8
03 9.06 СВ 1-2
{2}
19 км 10/0
[]
+10.5 +9.4 93 +10 +10 1021.8 1021.4 0
04 9.06 С 1-1
{2}
27 км 10/10
[]
+10.9 +9.8 93 +11 +11 1021.5 1021.1
05 9.06 С 1-1
{2}
19 км 10/10
[]
+10.7 +9.6 93 +11 +11 1021.3 1020.9
06 9.06 СВ 1
{3}
30 км 10/0
[]
+11.0 +9.7 92 +11 +11 1021.1 1020.7 +10.1 +14.6 0
07 9.06 СВ 1 19 км 10/10 2000 м
[]
+11.6 +10.2 91 +11 +11 1020.8 1020.4
08 9.06 СВ 2-2
{2}
45 км 10/10
[]
+12.7 +10.2 85 +12 +12 1020.7 1020.3
09 9.06 СВ 1
{4}
50 км 10/0 2000 м
[]
+14.4 +10.4 77 +15 +15 1020.5 1020.1 0
10 9.06 С 1 55 км 10/10 1500 м
[]
+15.4 +9.3 67 +16 +16 1020.3 1019.9
11 9.06 СВ 1 45 км 9/9 2000 м
[]
+16.9 +7.5 54 +18 +20 1019.9 1019.5
12 9.06 З 1
{5}
55 км 10/10 1000 м
[]
+16.5 +7.4 55 +17 +27 1019.7 1019.3 0
13 9.06 З 3 8000 м слаб. дождь 10/4 1080 м
[]
+14.5 +10.5 77 +14 +18 1019.7 1019.3 0.2
14 9.06 З 2 10 км слаб. дождь 10/10 2000 м
[]
+13.6 +10.4 81 +13 +13 1019.8 1019.4 0.2
15 9.06 З 2
{7}
6000 м слаб. дождь 10/10 1000 м
[]
+13.0 +10.9 87 +13 +19 1019.6 1019.2 3 0
16 9.06 З 2-3
{4}
20 км 10/10 1500 м
[]
+13.4 +10.7 84 +13 +13 1019.4 1019.0 0.2
17 9.06 З 3 30 км 10/1 450 м
[]
+11.7 +9.3 85 +10 +12 1019.6 1019.2 0.2
18 9.06 СЗ 3
{9}
23 км слаб. морось 10/10 1500 м
[]
+11.2 +9.3 88 +10 +10 1019.7 1019.3 +10.9 +17.7 0.4 0
19 9.06 СЗ 2-3
{6}
19 км 10/10 1500 м
[]
+10.8 +9.1 89 +10 +10 1019.6 1019.2 0.2
20 9.06 СЗ 1 50 км 10/5 1410 м
[]
+11.0 +9.1 88 +11 +11 1019.5 1019.1 0.2
21 9.06 З 1
{4}
50 км 10/10 1000 м
[]
+11.2 +9.5 89 +11 +11 1020.0 1019.6 0.4
22 9.06 З 1 19 км слаб. дождь 10/6 660 м
[]
+11.3 +9.4 88 +11 +11 1020.0 1019.6 0.0
23 9.06 СЗ 1 30 км 10/10 1500 м
[]
+10.8 +9.4 91 +11 +11 1019.5 1019.1 0.0
00 10.06 ЮЗ 1
{2}
17 км 10/10 1500 м
[]
+10.6 +9.5 93 +11 +11 1019.3 1018.9 0.0 0
01 10.06 З 1 19 км 8/8 2000 м
[]
+10.4 +9.2 92 +11 +11 1019.0 1018.6
02 10.06 З 1-2
{2}
800 м туман н/о +10.2 +9.3 94 +10 +10 1018.7 1018.3
03 10.06 З 1-2
{2}
15 км н/о +10.0 +9.1 94 +9 +9 1018.4 1018.0 0
04 10.06 З 1-2
{2}
600 м туман ?/? +8.9 +8.1 95 +8 +8 1018.0 1017.6
05 10.06 З 1-2
{2}
1100 м дымка ?/? +9.0 +8.4 96 +8 +8 1018.0 1017.6 0.2
06 10.06 З 1
{4}
13 км н/о +9.8 +9.0 95 +9 +9 1018.1 1017.7 +8.1 +11.5 0.2 0
07 10.06 З 2-2
{2}
24 км н/о +11.5 +10.2 92 +11 +11 1018.0 1017.6
08 10.06 З 2 35 км 8/6 480 м
[]
+13.0 +9.3 78 +12 +14 1017.9 1017.5
09 10.06 З 2
{8}
45 км 10/10 600 м
[]
+14.0 +8.6 70 +14 +17 1017.8 1017.4 0
10 10.06 З 3 60 км н/о +14.8 +7.6 62 +14 +14 1017.7 1017.3
11 10.06 З 3 60 км н/о +15.7 +7.2 57 +15 +15 1017.1 1016.7
12 10.06 З 4
{10}
40 км 8/8 600 м
[]
+16.1 +8.8 62 +16 +18 1016.8 1016.4 0
13 10.06 З 3-5
{6}
30 км н/о +16.2 +7.7 57 +16 +16 1016.3 1015.9
14 10.06 З 4 35 км 9/9 1140 м
[]
+15.7 +7.7 59 +15 +16 1015.7 1015.3
15 10.06 З 4-6
{6}
60 км н/о +16.0 +6.1 52 +15 +15 1015.5 1015.1 0
16 10.06 З 4-5
{6}
50 км н/о +15.9 +6.0 52 +15 +15 1015.4 1015.0
17 10.06 З 3 40 км н/о +15.4 +5.9 53 +15 +15 1015.0 1014.6
18 10.06 З 3
{11}
50 км 9/9 1500 м
[]
+12.9 +7.3 69 +12 +12 1015.0 1014.6 +9.7 +16.8 0
19 10.06 З 3 50 км н/о +13.4 +7.8 69 +13 +13 1014.8 1014.4
20 10.06 З 2 60 км н/о +11.8 +7.1 73 +11 +11 1014.7 1014.3
21 10.06 З 2-2
{2}
60 км н/о +11.2 +6.9 75 +10 +10 1015.1 1014.7 0
22 10.06 СЗ 1-2
{2}
60 км н/о +10.7 +7.4 80 +10 +10 1014.9 1014.5
23 10.06 С 1-2
{3}
60 км н/о +9.5 +6.8 83 +10 +10 1014.7 1014.3
00 11.06 С 1-1
{2}
60 км н/о +8.7 +6.5 86 +9 +9 1014.1 1013.7 0
01 11.06 СЗ 1-2
{2}
55 км н/о +8.8 +7.1 89 +8 +8 1013.7 1013.3
02 11.06 СЗ 1-2
{2}
30 км н/о +8.7 +7.3 91 +8 +8 1013.3 1012.9
03 11.06 СЗ 2-3
{3}
50 км н/о +8.6 +7.4 92 +7 +7 1012.7 1012.3 0
04 11.06 СЗ 1-2
{3}
40 км н/о +8.8 +7.4 91 +8 +8 1012.5 1012.1
05 11.06 З 1-2
{2}
27 км н/о +8.7 +7.5 92 +8 +8 1012.4 1012.0
06 11.06 СЗ 1
{4}
18 км 9/9 1500 м
[]
+10.1 +8.7 91 +10 +11 1012.1 1011.7 +8.5 +13.8 0
07 11.06 З 1 50 км 10/10 240 м
[]
+11.0 +9.3 89 +11 +11 1011.6 1011.2
08 11.06 СЗ 2 19 км слаб. дождь 10/10 400 м
[]
+10.9 +8.5 85 +10 +10 1011.3 1010.9 0.0
09 11.06 СЗ 1
{5}
50 км слаб. дождь 10/10 300 м
[]
+11.3 +8.5 83 +11 +11 1011.0 1010.6 0.2 0
10 11.06 З 1 18 км слаб. дождь 10/1 400 м
[]
+11.1 +8.5 84 +11 +19 1010.8 1010.4 0.4
11 11.06 З 2 35 км слаб. дождь 10/5 400 м
[]
+11.2 +8.9 86 +10 +15 1010.5 1010.1 0.4
12 11.06 З 1
{5}
11 км слаб. дождь 10/10 300 м
[]
+11.0 +8.7 86 +11 +18 1010.3 1009.9 2 0
13 11.06 З 2 13 км слаб. дождь 10/9 480 м
[]
+11.0 +8.6 85 +10 +11 1010.0 1009.6 0.6
14 11.06 В 1 22 км слаб. дождь 10/10 540 м
[]
+11.3 +8.7 84 +12 +12 1009.7 1009.3 0.6
15 11.06 ЮЗ 1
{3}
17 км слаб. дождь 10/10 300 м
[]
+10.9 +8.6 86 +11 +11 1009.3 1008.9 2 0
16 11.06 Ю 1 19 км слаб. дождь 10/10 450 м
[]
+11.5 +8.9 84 +11 +11 1009.1 1008.7 0.6
17 11.06 ЮВ 1 35 км слаб. дождь 10/9 480 м
[]
+11.6 +8.8 83 +11 +12 1008.8 1008.4 0.0
18 11.06 В 1
{3}
29 км слаб. дождь 10/10 600 м
[]
+11.2 +8.9 86 +11 +11 1008.8 1008.4 +10.1 +12.3 0.8 0
19 11.06 СВ 1 50 км 9/3 420 м
[]
+11.3 +9.4 88 +11 +11 1008.8 1008.4 0.0
20 11.06 СВ 2 50 км 10/6 700 м
[]
+10.6 +9.0 90 +10 +10 1009.0 1008.6 0.0
21 11.06 В 1
{3}
16 км слаб. дождь 10/10 300 м
[]
+10.3 +8.9 91 +10 +10 1009.2 1008.8 0.4 0
22 11.06 С 1 28 км 10/10 270 м
[]
+10.2 +9.1 93 +10 +10 1009.0 1008.6 0.6
23 11.06 С 1 35 км 10/10 400 м
[]
+10.0 +9.1 94 +9 +9 1008.9 1008.5
00 12.06 С 2
{5}
35 км н/о +8.6 +7.7 94 +7 +7 1008.7 1008.3 0.6 0
01 12.06 С 1 18 км 8/8 570 м
[]
+8.5 +7.7 95 +8 +8 1008.3 1007.9
02 12.06 С 2-2
{3}
23 км н/о +8.4 +7.6 95 +7 +7 1007.8 1007.4
01 13.06 ЮЗ 3 50 км слаб. дождь 10/9 420 м
[]
+11.9 +10.3 90 +10 +10 1010.6 1010.2 0.4
02 13.06 ЮЗ 2 60 км 10/6 500 м
[]
+11.7 +9.8 88 +10 +10 1010.2 1009.8 0.2
04 13.06 ЮЗ 2 60 км 9/4 600 м
[]
+10.8 +9.1 89 +10 +10 1010.1 1009.7
05 13.06 ЮЗ 2-3
{3}
60 км н/о +11.2 +9.3 88 +10 +10 1010.2 1009.8
07 13.06 ЮЗ 3 40 км 8/3 660 м
[]
+13.4 +9.4 77 +12 +14 1010.8 1010.4 0.2
08 13.06 ЮЗ 4 60 км 10/4 660 м
[]
+13.9 +9.7 76 +12 +14 1011.1 1010.7 0.2
09 13.06 ЮЗ 4-6
{6}
60 км 8/8 630 м
[]
+15.0 +10.4 74 +14 +15 1011.4 1011.0 0.4
10 13.06 ЮЗ 4 50 км 10/5 700 м
[]
+14.2 +9.8 75 +13 +15 1011.8 1011.4
11 13.06 ЮЗ 5-6
{7}
50 км 8/8 1500 м
[]
+15.3 +10.7 74 +14 +16 1011.8 1011.4 0.2
12 13.06 ЮЗ 4
{13}
40 км н/о +15.2 +9.3 68 +14 +14 1011.9 1011.5 0.2 0
13 13.06 ЮЗ 4-6
{6}
40 км 9/9 930 м
[]
+15.1 +8.1 63 +14 +15 1012.0 1011.6
14 13.06 ЮЗ 4-6
{6}
35 км н/о +15.4 +9.7 69 +15 +15 1011.9 1011.5
15 13.06 ЮЗ 3
{11}
45 км н/о +16.3 +9.9 66 +16 +16 1012.0 1011.6 0
16 13.06 ЮЗ 3 40 км н/о +16.0 +9.4 65 +16 +16 1012.4 1012.0
17 13.06 З 3-4
{5}
50 км 8/8 900 м
[]
+15.6 +9.5 67 +15 +16 1012.2 1011.8
18 13.06 ЮЗ 3
{9}
60 км н/о +15.2 +10.4 73 +15 +15 1012.5 1012.1 +11.9 +16.9 0
19 13.06 ЮЗ 2 50 км н/о +14.1 +9.1 72 +14 +14 1012.3 1011.9
20 13.06 З 2-2
{3}
60 км н/о +12.3 +8.9 80 +12 +12 1012.4 1012.0
21 13.06 ЮЗ 1-1
{2}
60 км н/о +11.4 +8.8 84 +11 +11 1012.9 1012.5 0
22 13.06 ЮЗ 1-2
{2}
55 км н/о +10.2 +8.0 86 +10 +10 1013.4 1013.0
23 13.06 ЮЗ 2-2
{2}
40 км н/о +10.6 +8.7 88 +10 +10 1013.6 1013.2
00 14.06 ЮЗ 1
{4}
60 км н/о +11.1 +8.8 86 +11 +11 1013.3 1012.9 0
01 14.06 ЮЗ 1-1
{2}
60 км н/о +10.0 +8.1 88 +9 +9 1013.3 1012.9
02 14.06 ЮЗ 2-2
{2}
60 км н/о +10.2 +8.5 89 +9 +9 1012.9 1012.5
03 14.06 ЮЗ 1-1
{2}
60 км н/о +9.8 +8.2 90 +9 +9 1012.7 1012.3 0
04 14.06 ЮЗ 1-2
{3}
55 км н/о +9.6 +8.0 90 +9 +9 1012.9 1012.5
05 14.06 ЮЗ 1-2
{2}
45 км н/о +9.4 +8.0 91 +9 +9 1013.1 1012.7
06 14.06 ЮЗ 2
{5}
45 км н/о +13.1 +10.6 85 +13 +13 1013.3 1012.9 +9.2 +15.4 0
07 14.06 ЮЗ 3-4
{4}
35 км н/о +13.8 +9.4 75 +13 +13 1013.7 1013.3
08 14.06 З 3 50 км 8/8 750 м
[]
+14.8 +9.4 70 +14 +16 1014.1 1013.7
09 14.06 ЮЗ 3-4
{4}
60 км н/о +16.3 +10.2 67 +16 +16 1014.1 1013.7 0
10 14.06 Ю 3-5
{5}
55 км н/о +16.2 +10.1 67 +16 +16 1013.9 1013.5
11 14.06 Ю 4-5
{5}
45 км н/о +16.3 +10.4 68 +16 +16 1014.2 1013.8
12 14.06 Ю 4-5
{5}
35 км н/о +16.6 +9.0 61 +16 +16 1014.2 1013.8 0
13 14.06 Ю 3-4
{5}
28 км н/о +17.2 +9.9 62 +17 +17 1014.0 1013.6
14 14.06 ЮЗ 3-4
{4}
28 км н/о +16.6 +8.3 58 +17 +17 1013.5 1013.1
15 14.06 З 2-4
{4}
40 км н/о +17.8 +7.5 51 +18 +18 1013.3 1012.9 0
16 14.06 З 2-4
{4}
19 км н/о +17.4 +6.9 50 +18 +18 1013.2 1012.8
17 14.06 ЮЗ 3-4
{4}
35 км н/о +16.3 +9.2 63 +16 +16 1013.2 1012.8
18 14.06 ЮЗ 3
{9}
35 км н/о +15.7 +9.8 68 +15 +15 1013.6 1013.2 +12.7 +18.1 0
19 14.06 З 3-4
{5}
35 км н/о +14.8 +9.6 71 +14 +14 1013.6 1013.2
20 14.06 З 2-3
{4}
60 км н/о +14.0 +9.6 75 +13 +13 1014.3 1013.9
21 14.06 З 2-2
{3}
55 км н/о +13.0 +9.6 80 +13 +13 1014.6 1014.2 0
22 14.06 З 2-2
{3}
55 км н/о +11.5 +9.1 85 +11 +11 1014.8 1014.4
23 14.06 ЮЗ 2-2
{2}
50 км н/о +10.6 +8.9 89 +10 +10 1015.0 1014.6
00 15.06 ЮЗ 2-2
{2}
55 км н/о +11.2 +9.5 89 +10 +10 1015.1 1014.7 0
01 15.06 ЮЗ 2-3
{3}
55 км н/о +11.7 +9.8 88 +11 +11 1015.3 1014.9
02 15.06 ЮЗ 2 55 км н/о +12.0 +9.7 86 +11 +11 1015.0 1014.6
03 15.06 ЮЗ 3-3
{3}
60 км н/о +12.5 +10.2 86 +11 +11 1015.0 1014.6 0
04 15.06 ЮЗ 3 60 км 9/8 540 м
[]
+13.7 +11.0 84 +13 +13 1014.9 1014.5
05 15.06 ЮЗ 3 55 км 8/6 600 м
[]
+13.4 +10.6 83 +12 +12 1015.3 1014.9 0.2
06 15.06 ЮЗ 4
{11}
50 км 9/9 600 м
[]
+14.0 +10.4 79 +13 +13 1015.5 1015.1 +10.5 +15.7 0.2 0
07 15.06 ЮЗ 4 35 км 10/8 600 м
[]
+14.4 +11.0 80 +13 +13 1016.0 1015.6
08 15.06 ЮЗ 5 30 км 9/9 660 м
[]
+15.7 +11.3 75 +15 +15 1016.6 1016.2
09 15.06 ЮЗ 4
{17}
35 км 9/9 600 м
[]
+14.7 +9.1 69 +14 +15 1017.0 1016.6 0
10 15.06 ЮЗ 5 17 км 10/8 700 м
[]
+14.3 +10.7 79 +13 +14 1017.4 1017.0
11 15.06 ЮЗ 5 35 км 9/6 600 м
[]
+17.1 +11.4 69 +17 +19 1017.5 1017.1
12 15.06 ЮЗ 6
{16}
29 км 9/9 600 м
[]
+17.0 +11.3 69 +16 +18 1017.7 1017.3 0
13 15.06 ЮЗ 5 25 км 10/10 600 м
[]
+15.6 +11.0 74 +14 +14 1018.0 1017.6
14 15.06 ЮЗ 4-7
{8}
17 км 10/10 500 м
[]
+14.5 +12.0 85 +13 +13 1018.4 1018.0 0.0
15 15.06 ЮЗ 5-15
{15}
19 км 10/10 300 м
[]
+15.5 +12.6 83 +14 +14 1018.5 1018.1 0.2 0
16 15.06 ЮЗ 5-7
{7}
15 км 10/10 480 м
[]
+15.3 +12.1 81 +14 +14 1018.6 1018.2
17 15.06 ЮЗ 5-7
{7}
18 км 10/10 500 м
[]
+15.0 +11.8 81 +14 +14 1018.8 1018.4
18 15.06 ЮЗ 4
{13}
18 км 10/10 300 м
[]
+14.9 +12.2 84 +14 +14 1019.0 1018.6 +13.8 +17.4 0.0 0
19 15.06 ЮЗ 4 17 км 10/10 480 м
[]
+14.7 +12.0 84 +14 +14 1019.3 1018.9
20 15.06 ЮЗ 4-6
{6}
16 км 10/10 450 м
[]
+14.7 +12.0 84 +14 +14 1019.3 1018.9
21 15.06 ЮЗ 3-5
{6}
16 км 10/10 450 м
[]
+14.5 +12.0 85 +14 +14 1019.8 1019.4

 

Местоположение метеостанции Сен-Назер (Франция): широта 47.32 долгота -2.17 высота над уровнем моря 3 м.

В архиве по умолчанию представлена погода в Сен-Назере за последнюю неделю. Архивные данные за месяц целиком и за предыдущие месяцы, начиная с января 2011 года, Вы можете получить, выбрав интересующий диапазон дат из раскрывающегося списка и нажав кнопку "Ввод!".


*Определитесь, кто Вы:
робот инопланетянин человек

Внимание! Время в таблицах - всемирное. Для получения местного времени необходимо прибавить поправку, которая равна 1 ч.

Смотрите также архив погоды в соседних городах и на ближайших метеорологических станциях:

Погода на Шемулене (Франция) (14 км)
Погода в Нанте (Франция) (47 км)
Погода на Йе (Франция) (70 км)
Погода в Дю Талю (Франция) (75 км)
Погода в Ренне (Франция) (90 км)
Погода в Ла-Рош-сюр-Йоне (Франция) (91 км)
Погода на Груа (Франция) (106 км)
Погода в Лорьене (Франция) (108 км)
Погода в Бокузе (Франция) (120 км)
Погода в Лавале (Франция) (134 км)

Пояснения к столбцам:

Ветер - указаны скорость ветра в м/с - средняя за 10 мин, порывы в срок и между сроками (в фигурных скобках) и направление, откуда дует ветер: С - северный, СВ - северо-восточный, В - восточный, ЮВ - юго-восточный, Ю - южный, ЮЗ - юго-западный, З - западный, СЗ - северо-западный.
Видимость - горизонтальная дальность видимости в метрах или километрах. При видимости от 1 до 10 км при отсутствии осадков обычно наблюдается дымка, при ухудшении видимости до 1 км и менее - туман. В сухую погоду видимость может ухудшаться дымом, пылью или мглою.
Явления - указаны атмосферные явления, наблюдавшиеся в срок или в последний час перед сроком; фигурными скобками обозначены явления, наблюдавшиеся между сроками (за 1-3 часа до срока); квадратными скобками обозначены град или гололедные отложения с указанием их диаметра в мм.
Облачность - указаны через наклонную черту общая и нижняя облачность в баллах и высота нижней границы облаков в метрах; квадратными скобками обозначены формы облаков: Ci - перистые, Cs - перисто-слоистые, Cc - перисто-кучевые, Ac - высококучевые, As - высокослоистые, Sc - слоисто-кучевые, Ns - слоисто-дождевые, Cu - кучевые, Cb - кучево-дождевые. Подробнее классификацию облаков см. в Атласе облаков (PDF).
T - Температура воздуха - температура, измеренная на высоте 2 м над землей.
Td - Температура точки росы - температура, при понижении до которой содержащийся в воздухе водяной пар достигнет насыщения.
f - Относительная влажность воздуха - влажноcть воздуха, измеренная на высоте 2 м над землей.
Te - Эффективная температура - температура, которую ощущает одетый по сезону человек в тени. Характеристика душности погоды. При расчете учитывается влияние влажности воздуха и скорости ветра на теплоощущения человека.
Tes - Эффективная температура на солнце - температура, которую ощущает человек, с поправкой на солнечный нагрев. Характеристика знойности погоды. Зависит от высоты солнца над горизонтом, облачности и скорости ветра. Ночью, в пасмурную погоду, а также при ветре 12 м/с и более поправка равна нулю.
P - Атмосферное давление - приведенное к уровню моря атмосферное давление.
Po - Атмосферное давление - измеренное на уровне метеостанции атмосферное давление.
Tmin - Минимальная температура - минимум температуры воздуха на высоте 2 м над землей.
Tmax - Максимальная температура - максимум температуры воздуха на высоте 2 м над землей.
R - Количество осадков - Количество выпавших осадков за период времени, мм. При наведении курсора мыши на число - период времени, за который выпало указанное количество осадков.
R24 - Количество осадков - Количество выпавших осадков за 24 часа, мм.
S - Снежный покров - Высота снежного покрова, см. При наведении курсора мыши на число - состояние снежного покрова и степень покрытия местности в баллах.